Location: Moscow
(55.7500°N, 37.5830°E)
Time: 19:27:36
(UTC+03:00)

N. Korean satellite - Pass Details

Date: 01 March 2021
Orbit: 452 x 499 km, 97.2° (Epoch: 20 April)

Event Time Altitude Azimuth Distance (km) Brightness Sun altitude
Rises 06:06:01 0° 15° (NNE) 2,509 10.4 -11.3°
Reaches altitude 10° 06:08:04 10° 17° (NNE) 1,636 9.5 -11.0°
Maximum altitude 06:11:35 76° 103° (ESE) 493 6.7 -10.5°
Drops below altitude 10° 06:15:07 10° 190° (S) 1,648 9.1 -10.0°
Sets 06:17:11 0° 192° (SSW) 2,531 10.1 -9.7°
